[[{"header":{"parameterUnit":"m.s-1","parameterCategory":1,"la1":30.2991,"la2":30.254,"lo1":-89.0895,"lo2":-89.0444,"dy":0.0017,"dx":0.0017,"nx":28,"ny":28,"refTime":"2025-08-15T09:00:00:Z","depth":0,"parameterNumber":2,"parameterNumberName":"U-component_of_WINDS"},"data":[0,0,0,0,0,0,0,0,0,0,0,0,0,0,0,0,0,0,0,0,0,0,0,0,0,0,0,0,0,0,0,0,0,0,0,0,0,0,0,0,0,0,0,0,0,0,0,0,0,0,0,0,0,0,0,0,0,0,1.185,1.185,0,1.1822,1.1822,1.1822,1.1723,1.1721,1.1718,1.1716,1.1691,1.1692,1.1694,0,0,0,0,0,0,0,0,0,0,0,0,0,1.1821,1.1822,1.185,1.185,1.185,1.1822,1.1822,1.1822,1.1723,1.172,1.1718,1.1715,1.1691,1.1692,1.1694,0,0,0,0,0,0,0,0,0,0,0,0,0,1.1818,1.1823,1.185,1.1797,1.1792,1.1823,1.1822,1.1822,1.1724,1.172,1.1717,1.1714,1.169,1.1692,1.1694,1.1775,0,0,1.1701,1.1702,0,0,0,0,0,0,0,0,1.1818,1.1819,1.1805,1.1801,1.1795,1.1772,1.1802,1.1806,1.1725,1.175,1.1716,1.1712,1.1721,1.1721,1.1723,1.1774,1.1773,1.1701,1.1702,1.1703,1.1704,0,0,0,0,0,0,0,1.1818,1.182,1.1839,1.1805,1.1799,1.1776,1.1771,1.1803,1.1755,1.1747,1.174,1.1738,1.1718,1.1721,1.1721,1.1772,1.1701,1.1703,1.1704,1.1705,1.189,1.1893,0,0,0,0,0,0,1.1826,1.182,1.184,1.1838,1.1798,1.1779,1.1774,1.1783,1.1754,1.1746,1.1741,1.1733,1.1719,1.1719,1.172,1.1814,1.1703,1.1705,1.1706,1.1886,1.189,1.1894,0,0,0,0,0,0,1.1826,1.1829,1.1841,1.1827,1.1827,1.1783,1.1794,1.1785,1.1788,1.1749,1.1741,1.1753,1.1716,1.1717,1.1762,1.1812,1.1706,1.1708,1.1882,1.1887,1.1892,1.2002,0,0,0,0,0,0,1.1825,1.1829,1.1859,1.1829,1.1828,1.1883,1.1797,1.1786,1.1791,1.1781,1.1758,1.1751,1.1714,1.176,1.1764,1.1813,1.171,1.1877,1.1884,1.1891,1.1994,1.2011,1.2025,0,0,0,0,0,1.1824,1.1891,1.1861,1.1864,1.1864,1.1886,1.1886,1.1841,1.1796,1.1826,1.1801,1.1752,1.1805,1.1765,1.177,1.182,1.1874,1.1882,1.189,1.1987,1.2007,1.2025,0,0,0,0,0,0,1.1929,1.1886,1.1852,1.1911,1.1903,1.1869,1.1906,1.1864,1.1869,1.186,1.1804,1.18,1.1853,1.184,1.1796,1.1897,1.1831,1.1841,1.1904,1.1923,1.1938,1.1941,1.1712,0,0,0,0,0,1.1959,1.1979,1.1941,1.1997,1.1994,1.1951,1.1959,1.1924,1.1914,1.1911,1.1889,1.1883,1.1898,1.1909,1.1921,1.1991,1.1985,1.2028,1.2043,1.2056,1.2066,1.2103,1.2122,1.1921,1.1921,1.1921,0,0,1.2021,1.2,1.2016,1.2017,1.2007,1.2031,1.1949,1.1977,1.1994,1.1915,1.1957,1.1941,1.193,1.1988,1.2013,1.1979,1.2119,1.2066,1.2077,1.2079,1.2113,1.2133,1.215,1.1927,1.1926,1.1925,0,0,1.2146,1.2132,1.2177,1.2168,1.2153,1.2124,1.2135,1.2108,1.2095,1.2135,1.2076,1.2096,1.2123,1.2118,1.2119,1.2242,1.2198,1.2247,1.2329,1.2367,1.2383,1.2396,1.2442,1.2459,1.2257,1.2257,1.2257,0,1.2226,1.2258,1.2206,1.2238,1.2241,1.2169,1.2215,1.2209,1.22,1.2204,1.2166,1.2199,1.2186,1.2243,1.2273,1.2275,1.2287,1.2251,1.2384,1.2398,1.241,1.2453,1.247,1.2263,1.2262,1.2262,1.2261,0,1.2357,1.2381,1.2419,1.2411,1.2417,1.2457,1.2412,1.2425,1.239,1.2365,1.2408,1.239,1.2397,1.2407,1.2374,1.246,1.244,1.2394,1.2327,1.2436,1.2476,1.2492,1.2272,1.227,1.2268,1.2266,0,0,1.255,1.2511,1.2527,1.2522,1.25,1.2518,1.2554,1.256,1.2574,1.2569,1.2599,1.2624,1.2581,1.2582,1.2547,1.258,1.2681,1.253,1.2528,1.256,1.2776,1.2813,1.2832,1.265,1.2653,1.2655,1.2778,0,1.267,1.2729,1.2684,1.2751,1.2773,1.2705,1.2736,1.2727,1.2705,1.2721,1.2696,1.2715,1.2657,1.2657,1.2686,1.2662,1.2724,1.2652,1.268,1.2681,1.2687,1.2853,1.2891,1.3008,1.2793,1.2795,1.2797,0,1.2819,1.2821,1.2891,1.2865,1.2872,1.2902,1.2904,1.2919,1.2908,1.2889,1.2891,1.2847,1.2882,1.2815,1.2864,1.2816,1.2824,1.2815,1.2818,1.282,1.2747,1.2862,1.3043,1.3062,1.2821,1.2819,1.2817,0,1.2955,1.2974,1.3019,1.3017,1.2987,1.301,1.2999,1.2983,1.299,1.2993,1.2997,1.3003,1.3008,1.3014,1.2974,1.2929,1.3029,1.2958,1.3016,1.3017,1.3042,1.3041,1.3229,1.3044,1.3044,1.3043,1.3043,0,1.3096,1.3142,1.3079,1.3107,1.3157,1.3104,1.3155,1.3137,1.3124,1.3148,1.3089,1.3113,1.3057,1.3076,1.3045,1.309,1.3092,1.308,1.3071,1.3086,1.3088,1.3092,1.3084,1.3048,1.3047,1.3046,1.3045,0,1.3256,1.3216,1.326,1.3228,1.3221,1.326,1.3233,1.3258,1.3231,1.3262,1.3267,1.3225,1.3244,1.3204,1.3217,1.3196,1.3262,1.324,1.3266,1.326,1.3321,1.3316,1.352,1.3545,1.3342,1.3344,1.3346,0,1.335,1.3383,1.3355,1.3366,1.3358,1.3377,1.3383,1.3332,1.3342,1.3331,1.3358,1.3372,1.338,1.3414,1.3386,1.3396,1.3375,1.3445,1.3376,1.339,1.3378,1.3377,1.3381,1.346,1.3463,1.3465,1.3466,0,1.3521,1.3499,1.351,1.3515,1.3524,1.3525,1.3522,1.3535,1.3481,1.3495,1.3513,1.3519,1.3532,1.3547,1.3551,1.3541,1.3496,1.3488,1.3502,1.3519,1.3534,1.3528,1.3307,1.3484,1.3482,1.3481,1.348,1.3479,1.3652,1.3679,1.3663,1.3677,1.367,1.3669,1.3691,1.3666,1.368,1.3686,1.3655,1.3681,1.3669,1.3669,1.3663,1.3683,1.3652,1.3672,1.3677,1.3684,1.3694,1.3529,1.3684,1.3683,1.3682,1.3682,1.3682,0,1.3821,1.3807,1.3821,1.3819,1.383,1.3785,1.3779,1.3793,1.3815,1.3807,1.3816,1.3838,1.3852,1.3825,1.3835,1.3856,1.3836,1.3861,1.386,1.3859,1.3721,1.3709,1.3877,1.3877,1.3877,1.3877,1.3877,1.3877,1.3911,1.3955,1.3931,1.3971,1.3957,1.398,1.3982,1.3981,1.3974,1.4,1.4011,1.3993,1.3978,1.3986,1.3998,1.3989,1.3997,1.403,1.4015,1.3887,1.3868,1.385,1.3838,1.4031,1.4031,1.415,1.4151,1.4152]},{"header":{"parameterUnit":"m.s-1","parameterCategory":1,"la1":30.2991,"la2":30.254,"lo1":-89.0895,"lo2":-89.0444,"dy":0.0017,"dx":0.0017,"nx":28,"ny":28,"refTime":"2025-08-15T09:00:00:Z","depth":0,"parameterNumber":3,"parameterNumberName":"V-component_of_WINDS"},"data":[0,0,0,0,0,0,0,0,0,0,0,0,0,0,0,0,0,0,0,0,0,0,0,0,0,0,0,0,0,0,0,0,0,0,0,0,0,0,0,0,0,0,0,0,0,0,0,0,0,0,0,0,0,0,0,0,0,0,-0.4256,-0.4256,0,-0.4294,-0.4295,-0.4295,-0.433,-0.433,-0.4331,-0.4331,-0.4373,-0.4373,-0.4374,0,0,0,0,0,0,0,0,0,0,0,0,0,-0.4217,-0.4218,-0.4256,-0.4256,-0.4257,-0.4294,-0.4295,-0.4295,-0.433,-0.433,-0.4331,-0.4331,-0.4372,-0.4373,-0.4374,0,0,0,0,0,0,0,0,0,0,0,0,0,-0.4243,-0.4218,-0.4256,-0.4278,-0.4281,-0.4294,-0.4295,-0.4296,-0.433,-0.433,-0.4331,-0.4331,-0.4372,-0.4373,-0.4374,-0.4369,0,0,-0.4378,-0.4378,0,0,0,0,0,0,0,0,-0.4241,-0.4244,-0.4274,-0.4277,-0.4279,-0.4308,-0.4297,-0.432,-0.4329,-0.4311,-0.4331,-0.4332,-0.4351,-0.4354,-0.436,-0.4371,-0.4373,-0.4378,-0.4379,-0.4379,-0.4379,0,0,0,0,0,0,0,-0.4239,-0.4243,-0.4271,-0.4275,-0.4278,-0.4288,-0.4293,-0.4301,-0.4327,-0.4313,-0.4315,-0.4319,-0.4352,-0.4359,-0.4361,-0.4374,-0.4378,-0.4379,-0.4379,-0.438,-0.4389,-0.4388,0,0,0,0,0,0,-0.4234,-0.4241,-0.427,-0.4272,-0.4261,-0.4289,-0.4293,-0.4298,-0.4327,-0.4332,-0.4319,-0.4321,-0.4356,-0.436,-0.4363,-0.4362,-0.4379,-0.438,-0.4381,-0.4389,-0.4389,-0.4388,0,0,0,0,0,0,-0.4233,-0.4236,-0.4268,-0.4257,-0.4262,-0.4289,-0.4294,-0.4299,-0.4305,-0.4332,-0.4337,-0.432,-0.4357,-0.4361,-0.4368,-0.4364,-0.4381,-0.4382,-0.439,-0.4389,-0.4388,-0.4358,0,0,0,0,0,0,-0.4231,-0.4235,-0.4232,-0.4257,-0.4263,-0.4272,-0.4293,-0.4299,-0.4306,-0.4309,-0.4334,-0.4339,-0.4358,-0.4367,-0.437,-0.4365,-0.4382,-0.439,-0.4389,-0.4389,-0.436,-0.4356,-0.4354,0,0,0,0,0,-0.423,-0.4221,-0.4231,-0.4235,-0.4259,-0.4271,-0.4275,-0.4296,-0.4306,-0.4304,-0.4322,-0.4338,-0.4364,-0.4367,-0.4371,-0.4367,-0.4391,-0.439,-0.4389,-0.4361,-0.4357,-0.4354,0,0,0,0,0,0,-0.4194,-0.4225,-0.4236,-0.4235,-0.425,-0.4277,-0.4275,-0.429,-0.4303,-0.4305,-0.4332,-0.4338,-0.4343,-0.4356,-0.4359,-0.4366,-0.438,-0.4379,-0.4357,-0.4354,-0.4351,-0.4348,-0.4383,0,0,0,0,0,-0.4186,-0.4192,-0.4219,-0.4216,-0.4223,-0.4248,-0.4254,-0.4269,-0.4286,-0.4293,-0.4311,-0.4328,-0.4341,-0.4348,-0.436,-0.4362,-0.437,-0.4362,-0.4359,-0.4356,-0.4356,-0.4362,-0.436,-0.4385,-0.4385,-0.4385,0,0,-0.417,-0.4187,-0.4189,-0.4209,-0.4223,-0.4231,-0.4253,-0.4259,-0.4266,-0.4294,-0.4303,-0.4317,-0.4338,-0.4344,-0.4347,-0.4355,-0.4351,-0.4355,-0.4353,-0.4354,-0.4361,-0.4358,-0.4356,-0.4384,-0.4384,-0.4385,0,0,-0.4144,-0.4157,-0.4157,-0.4171,-0.4192,-0.4209,-0.4209,-0.4235,-0.4245,-0.4255,-0.4277,-0.4287,-0.4306,-0.4322,-0.4332,-0.4318,-0.4335,-0.4322,-0.4306,-0.4312,-0.431,-0.4308,-0.4306,-0.4304,-0.4321,-0.4321,-0.4321,0,-0.4121,-0.4133,-0.4155,-0.4162,-0.4172,-0.4198,-0.4201,-0.4214,-0.4237,-0.4245,-0.4253,-0.4281,-0.4297,-0.4308,-0.4305,-0.4312,-0.4316,-0.4318,-0.4308,-0.4307,-0.4306,-0.4304,-0.4302,-0.4319,-0.432,-0.432,-0.432,0,-0.4105,-0.4113,-0.4112,-0.4135,-0.4145,-0.4149,-0.4175,-0.4182,-0.4198,-0.4215,-0.4227,-0.4248,-0.4267,-0.4271,-0.4285,-0.4286,-0.429,-0.4303,-0.4317,-0.4301,-0.43,-0.4299,-0.4317,-0.4318,-0.4318,-0.4319,0,0,-0.4056,-0.4095,-0.4094,-0.4107,-0.4133,-0.4141,-0.4149,-0.4167,-0.4175,-0.4192,-0.4201,-0.4219,-0.4232,-0.4244,-0.4261,-0.4266,-0.4258,-0.4279,-0.428,-0.4276,-0.4263,-0.4254,-0.4253,-0.4269,-0.4269,-0.4269,-0.4262,0,-0.4037,-0.405,-0.4073,-0.408,-0.409,-0.4117,-0.4125,-0.4143,-0.4161,-0.4174,-0.4194,-0.4207,-0.4222,-0.423,-0.4236,-0.4257,-0.4256,-0.4258,-0.428,-0.428,-0.4274,-0.4252,-0.4241,-0.4234,-0.4262,-0.4262,-0.4262,0,-0.4015,-0.4031,-0.4039,-0.4069,-0.4074,-0.408,-0.4101,-0.4112,-0.4136,-0.4148,-0.4164,-0.4184,-0.4196,-0.4209,-0.4229,-0.423,-0.4241,-0.4253,-0.4254,-0.4257,-0.427,-0.4256,-0.4232,-0.4231,-0.4261,-0.4261,-0.4261,0,-0.3982,-0.4005,-0.4014,-0.4024,-0.4058,-0.4063,-0.4077,-0.4101,-0.4113,-0.4132,-0.414,-0.4161,-0.4172,-0.4189,-0.4216,-0.4222,-0.4234,-0.4248,-0.4247,-0.4246,-0.4247,-0.4247,-0.4226,-0.4253,-0.4253,-0.4253,-0.4253,0,-0.3958,-0.3962,-0.4,-0.4006,-0.4013,-0.4041,-0.4048,-0.4066,-0.4087,-0.4099,-0.4124,-0.4135,-0.4168,-0.4184,-0.4205,-0.422,-0.4224,-0.4237,-0.4243,-0.4235,-0.4234,-0.4243,-0.4244,-0.4252,-0.4252,-0.4252,-0.4252,0,-0.3922,-0.3947,-0.3959,-0.3991,-0.4,-0.4004,-0.4033,-0.4041,-0.4061,-0.4076,-0.4081,-0.4113,-0.4133,-0.4161,-0.419,-0.4204,-0.4217,-0.4225,-0.4208,-0.4212,-0.421,-0.421,-0.4194,-0.4195,-0.422,-0.422,-0.4219,0,-0.3905,-0.391,-0.3944,-0.3953,-0.3967,-0.3981,-0.3994,-0.4023,-0.4035,-0.4064,-0.407,-0.4092,-0.4111,-0.4142,-0.4169,-0.4192,-0.4202,-0.4195,-0.4206,-0.4199,-0.4204,-0.4204,-0.4206,-0.4192,-0.4192,-0.4192,-0.4191,0,-0.3875,-0.3888,-0.3904,-0.3926,-0.394,-0.3958,-0.3978,-0.3984,-0.4018,-0.4031,-0.4052,-0.4067,-0.4097,-0.412,-0.4147,-0.4165,-0.4185,-0.4188,-0.4189,-0.4182,-0.4173,-0.418,-0.4203,-0.4188,-0.4188,-0.4189,-0.4189,-0.4189,-0.385,-0.3857,-0.3882,-0.39,-0.3919,-0.3937,-0.3947,-0.397,-0.3987,-0.4014,-0.403,-0.4051,-0.4079,-0.4118,-0.4135,-0.4154,-0.4161,-0.4162,-0.4163,-0.4163,-0.4162,-0.417,-0.4158,-0.4159,-0.4159,-0.4159,-0.4159,0,-0.3823,-0.3842,-0.3858,-0.3885,-0.3901,-0.3918,-0.3941,-0.3954,-0.3971,-0.3995,-0.4014,-0.404,-0.4063,-0.4093,-0.4119,-0.4128,-0.4138,-0.4134,-0.4134,-0.4139,-0.4152,-0.4149,-0.4126,-0.4126,-0.4126,-0.4126,-0.4126,-0.4126,-0.3811,-0.3824,-0.3841,-0.3864,-0.3883,-0.3903,-0.3916,-0.3935,-0.3954,-0.3981,-0.4001,-0.402,-0.4048,-0.4076,-0.4099,-0.4108,-0.4117,-0.4111,-0.4122,-0.4134,-0.4137,-0.414,-0.4137,-0.4112,-0.4112,-0.4107,-0.4107,-0.4107]}]]